When you browse on this site, cookies collect data to enhance your experience and personalize the content and advertising you see.
Visit our Privacy Policy to learn more. By continuing to use the site, you agree to this use of cookies and data.
  • en France
  • Liste des pays
  • À 7 jours
  • Température de l'eau
  • Carte satellitaire
  • Carte météo
  • Widgets météo
  • user-avatar
    Se connecter

    Météo par heure à Igls

    Ce jour, 17 Juin, Lundi

    Heure Température Précipitation Vent Pression Humidité
    00:00 +13°C° 0 mm 0 m/s 688 mmHg 98%
    01:00 +14°C° 0 mm 1 m/s 688 mmHg 99%
    02:00 +14°C° 0 mm 1 m/s 687 mmHg 98%
    03:00 +13°C° 0 mm 0 m/s 687 mmHg 98%
    04:00 +12°C° 0 mm 0 m/s 687 mmHg 97%
    05:00 +13°C° 0 mm 0 m/s 687 mmHg 94%
    06:00 +14°C° 0 mm 0 m/s 688 mmHg 91%
    07:00 +16°C° 0 mm 1 m/s 688 mmHg 88%
    08:00 +20°C° 0 mm 1 m/s 688 mmHg 78%
    09:00 +22°C° 0 mm 1 m/s 688 mmHg 68%
    10:00 +24°C° 0 mm 1 m/s 688 mmHg 58%
    11:00 +24°C° 0.2 mm 1 m/s 688 mmHg 56%
    12:00 +25°C° 0.2 mm 1 m/s 688 mmHg 55%
    13:00 +26°C° 0.2 mm 1 m/s 688 mmHg 54%
    14:00 +25°C° 1 mm 1 m/s 687 mmHg 58%
    15:00 +24°C° 1 mm 1 m/s 687 mmHg 63%
    16:00 +24°C° 1 mm 1 m/s 686 mmHg 68%
    17:00 +23°C° 1.2 mm 1 m/s 686 mmHg 75%
    18:00 +22°C° 1.2 mm 1 m/s 686 mmHg 82%
    19:00 +19°C° 1.2 mm 0 m/s 686 mmHg 88%
    20:00 +17°C° 0.6 mm 0 m/s 686 mmHg 89%
    21:00 +16°C° 0.6 mm 0 m/s 686 mmHg 90%
    22:00 +16°C° 0.6 mm 1 m/s 686 mmHg 91%
    23:00 +15°C° 0 mm 1 m/s 686 mmHg 90%

    Demain, 18 Juin, Mardi

    Heure Température Précipitation Vent Pression Humidité
    00:00 +15°C° 0 mm 1 m/s 686 mmHg 90%
    01:00 +15°C° 0 mm 1 m/s 686 mmHg 89%
    02:00 +15°C° 0 mm 1 m/s 685 mmHg 90%
    03:00 +14°C° 0 mm 1 m/s 685 mmHg 90%
    04:00 +14°C° 0 mm 1 m/s 685 mmHg 90%
    05:00 +16°C° 0 mm 1 m/s 685 mmHg 86%
    06:00 +18°C° 0 mm 1 m/s 686 mmHg 83%
    07:00 +18°C° 0 mm 0 m/s 686 mmHg 80%
    08:00 +22°C° 0.3 mm 1 m/s 686 mmHg 71%
    09:00 +24°C° 0.3 mm 1 m/s 686 mmHg 62%
    10:00 +26°C° 0.3 mm 1 m/s 686 mmHg 53%
    11:00 +27°C° 1 mm 1 m/s 686 mmHg 52%
    12:00 +27°C° 1 mm 1 m/s 686 mmHg 51%
    13:00 +27°C° 1 mm 1 m/s 686 mmHg 49%
    14:00 +26°C° 1.2 mm 1 m/s 686 mmHg 58%
    15:00 +25°C° 1.2 mm 1 m/s 685 mmHg 67%
    16:00 +23°C° 1.2 mm 1 m/s 685 mmHg 76%
    17:00 +22°C° 1.6 mm 1 m/s 684 mmHg 82%
    18:00 +20°C° 1.6 mm 1 m/s 684 mmHg 88%
    19:00 +18°C° 1.6 mm 2 m/s 684 mmHg 94%
    20:00 +18°C° 0.3 mm 1 m/s 684 mmHg 93%
    21:00 +18°C° 0.3 mm 1 m/s 684 mmHg 92%
    22:00 +16°C° 0.3 mm 1 m/s 684 mmHg 91%
    23:00 +16°C° 0 mm 1 m/s 684 mmHg 90%

    Après-demain, 19 Juin, Mercredi

    Heure Température Précipitation Vent Pression Humidité
    00:00 +15°C° 0 mm 1 m/s 684 mmHg 89%
    01:00 +15°C° 0 mm 1 m/s 684 mmHg 88%
    02:00 +14°C° 0 mm 1 m/s 683 mmHg 87%
    03:00 +14°C° 0 mm 1 m/s 683 mmHg 86%
    04:00 +14°C° 0 mm 1 m/s 683 mmHg 86%
    05:00 +16°C° 0 mm 1 m/s 683 mmHg 82%
    06:00 +16°C° 0 mm 0 m/s 684 mmHg 78%
    07:00 +18°C° 0 mm 0 m/s 684 mmHg 74%
    08:00 +20°C° 0.1 mm 0 m/s 684 mmHg 64%
    09:00 +23°C° 0.1 mm 0 m/s 685 mmHg 54%
    10:00 +27°C° 0.1 mm 1 m/s 685 mmHg 44%
    11:00 +27°C° 0.2 mm 1 m/s 685 mmHg 43%
    12:00 +27°C° 0.2 mm 1 m/s 685 mmHg 42%
    13:00 +27°C° 0.2 mm 1 m/s 685 mmHg 40%
    14:00 +26°C° 0.4 mm 1 m/s 684 mmHg 46%
    15:00 +25°C° 0.4 mm 1 m/s 684 mmHg 51%
    16:00 +24°C° 0.4 mm 1 m/s 684 mmHg 56%
    17:00 +22°C° 1.3 mm 1 m/s 683 mmHg 67%
    18:00 +20°C° 1.3 mm 1 m/s 683 mmHg 78%
    19:00 +18°C° 1.3 mm 1 m/s 683 mmHg 89%
    20:00 +16°C° 0.1 mm 1 m/s 683 mmHg 87%
    21:00 +15°C° 0.1 mm 1 m/s 683 mmHg 86%
    22:00 +15°C° 0.1 mm 1 m/s 683 mmHg 84%
    23:00 +14°C° 0 mm 1 m/s 683 mmHg 83%

    20 Juin, Jeudi

    Heure Température Précipitation Vent Pression Humidité
    00:00 +14°C° 0 mm 1 m/s 683 mmHg 82%
    01:00 +14°C° 0 mm 1 m/s 683 mmHg 81%
    02:00 +13°C° 0 mm 1 m/s 683 mmHg 82%
    03:00 +13°C° 0 mm 1 m/s 683 mmHg 82%
    04:00 +12°C° 0 mm 0 m/s 683 mmHg 82%
    05:00 +14°C° 0 mm 0 m/s 683 mmHg 78%
    06:00 +16°C° 0 mm 0 m/s 684 mmHg 74%
    07:00 +18°C° 0 mm 0 m/s 684 mmHg 70%
    08:00 +22°C° 0 mm 1 m/s 684 mmHg 61%
    09:00 +25°C° 0 mm 1 m/s 685 mmHg 53%
    10:00 +27°C° 0 mm 1 m/s 685 mmHg 44%
    11:00 +27°C° 0 mm 1 m/s 685 mmHg 42%
    12:00 +28°C° 0 mm 2 m/s 684 mmHg 40%
    13:00 +29°C° 0 mm 2 m/s 684 mmHg 39%
    14:00 +28°C° 0.5 mm 2 m/s 684 mmHg 45%
    15:00 +27°C° 0.5 mm 2 m/s 684 mmHg 51%
    16:00 +26°C° 0.5 mm 2 m/s 683 mmHg 58%
    17:00 +23°C° 1.3 mm 2 m/s 683 mmHg 70%
    18:00 +20°C° 1.3 mm 2 m/s 683 mmHg 82%
    19:00 +18°C° 1.3 mm 1 m/s 683 mmHg 94%
    20:00 +18°C° 0.2 mm 1 m/s 684 mmHg 95%
    21:00 +16°C° 0.2 mm 1 m/s 684 mmHg 96%
    22:00 +15°C° 0.2 mm 1 m/s 684 mmHg 97%
    23:00 +15°C° 0 mm 1 m/s 684 mmHg 96%

    21 Juin, Vendredi

    Heure Température Précipitation Vent Pression Humidité
    00:00 +14°C° 0 mm 1 m/s 684 mmHg 95%
    01:00 +14°C° 0 mm 1 m/s 684 mmHg 94%
    02:00 +14°C° 0 mm 1 m/s 684 mmHg 93%
    03:00 +13°C° 0 mm 1 m/s 684 mmHg 93%
    04:00 +13°C° 0 mm 1 m/s 684 mmHg 92%
    05:00 +14°C° 0 mm 0 m/s 684 mmHg 88%
    06:00 +16°C° 0 mm 0 m/s 685 mmHg 84%
    07:00 +18°C° 0 mm 0 m/s 685 mmHg 81%
    08:00 +21°C° 0.1 mm 1 m/s 686 mmHg 73%
    09:00 +23°C° 0.1 mm 1 m/s 686 mmHg 65%
    10:00 +25°C° 0.1 mm 1 m/s 686 mmHg 57%
    11:00 +24°C° 0.9 mm 2 m/s 686 mmHg 63%
    12:00 +24°C° 0.9 mm 2 m/s 685 mmHg 69%
    13:00 +23°C° 0.9 mm 2 m/s 685 mmHg 75%
    14:00 +23°C° 1.5 mm 1 m/s 685 mmHg 78%
    15:00 +23°C° 1.5 mm 1 m/s 685 mmHg 81%
    16:00 +22°C° 1.5 mm 1 m/s 684 mmHg 83%
    17:00 +21°C° 1.1 mm 1 m/s 685 mmHg 87%
    18:00 +20°C° 1.1 mm 1 m/s 685 mmHg 91%
    19:00 +19°C° 1.1 mm 1 m/s 685 mmHg 95%
    20:00 +19°C° 1.4 mm 1 m/s 685 mmHg 96%
    21:00 +18°C° 1.4 mm 1 m/s 685 mmHg 97%
    22:00 +16°C° 1.4 mm 1 m/s 686 mmHg 98%
    23:00 +16°C° 0.4 mm 1 m/s 685 mmHg 98%

    22 Juin, Samedi

    Heure Température Précipitation Vent Pression Humidité
    00:00 +15°C° 0.4 mm 0 m/s 685 mmHg 98%
    01:00 +14°C° 0.4 mm 0 m/s 685 mmHg 98%
    02:00 +14°C° 0 mm 0 m/s 684 mmHg 97%
    03:00 +14°C° 0 mm 1 m/s 684 mmHg 97%
    04:00 +14°C° 0 mm 1 m/s 684 mmHg 96%
    05:00 +15°C° 0 mm 1 m/s 684 mmHg 94%
    06:00 +16°C° 0 mm 1 m/s 684 mmHg 92%
    07:00 +19°C° 0 mm 1 m/s 684 mmHg 90%
    08:00 +20°C° 0.4 mm 1 m/s 684 mmHg 86%
    09:00 +21°C° 0.4 mm 1 m/s 684 mmHg 83%
    10:00 +21°C° 0.4 mm 2 m/s 684 mmHg 79%
    11:00 +21°C° 1.4 mm 2 m/s 684 mmHg 80%
    12:00 +21°C° 1.4 mm 2 m/s 684 mmHg 81%
    13:00 +21°C° 1.4 mm 2 m/s 684 mmHg 82%
    14:00 +22°C° 1.7 mm 1 m/s 684 mmHg 84%
    15:00 +21°C° 1.7 mm 1 m/s 684 mmHg 86%
    16:00 +21°C° 1.7 mm 1 m/s 683 mmHg 88%
    17:00 +20°C° 1.1 mm 1 m/s 683 mmHg 90%
    18:00 +20°C° 1.1 mm 1 m/s 684 mmHg 91%
    19:00 +19°C° 1.1 mm 1 m/s 684 mmHg 93%
    20:00 +18°C° 1.1 mm 1 m/s 684 mmHg 95%
    21:00 +18°C° 1.1 mm 1 m/s 684 mmHg 96%
    22:00 +16°C° 1.1 mm 1 m/s 684 mmHg 98%
    23:00 +16°C° 1.3 mm 1 m/s 684 mmHg 98%
    Voir plus